Regional Weather Roundup
Issued by NWS Upton, NY

Current Version | Previous Version | Text Only | Print | Product List | Glossary On
Versions: 1 2 3 4 5 6 7 8 9 10 11 12 13 14 15 16 17 18 19 20 21 22 23 24 25 26 27 28 29 30 31 32 33 34 35 36 37 38 39 40 41 42 43 44 45 46 47 48 49 50
000 ASUS41 KOKX 300409 RWROKX REGIONAL WEATHER ROUNDUP NATIONAL WEATHER SERVICE NEW YORK NY 1200 AM EDT FRI SEP 30 2016 NOTE: "FAIR" INDICATES FEW OR NO CLOUDS BELOW 12,000 FEET WITH NO SIGNIFICANT WEATHER AND/OR OBSTRUCTIONS TO VISIBILITY. NYZ071-072-176-178-NJZ106-104-300500- NEW YORK CITY METRO AREA CITY SKY/WX TMP DP RH WIND PRES REMARKS Central Park CLOUDY 60 52 74 E18G26 30.38F LaGuardia APRT LGT RAIN 61 54 77 NE26G36 30.36S Kennedy INTL LGT RAIN 59 52 77 NE17G32 30.37S Newark/Liberty LGT RAIN 60 54 80 NE14G28 30.36S Bronx Bot Gard N/A 57 46 67 N10 30.39R Wall St Helipt CLOUDY 63 57 82 NE17G26 30.35R Teterboro LGT RAIN 58 48 69 NE13 30.36S $$ NYZ177-179-078>081-300500- LONG ISLAND NEW YORK CITY SKY/WX TMP DP RH WIND PRES REMARKS Farmingdale CLOUDY 60 52 74 E16G23 30.36F MacArthur/ISP CLOUDY 59 52 77 NE12G25 30.36F Shirley CLOUDY 60 52 74 NE9G18 30.37F Riverhead NOT AVBL Westhampton CLOUDY 60 51 72 NE13G21 30.39S Southampton NOT AVBL Bridgehampton NOT AVBL East Hampton CLOUDY 59 53 78 E13G22 30.38F Montauk N/A 61 54 77 NE14G24 30.40F $$ NYZ052-065-067-300500- HUDSON VALLEY CITY SKY/WX TMP DP RH WIND PRES REMARKS White Plains MOCLDY 55 47 74 NE13G30 30.37F Newburgh MOCLDY 57 48 72 E15 30.42F Montgomery CLOUDY 58 47 66 NE8 30.40S Poughkeepsie MOCLDY 56 44 64 NE8 30.40F Albany MOCLDY 53 44 71 NE6 30.46S $$ NJZ001-105-106-008-010-013-015-019>022-104-300500- NEW JERSEY CITY SKY/WX TMP DP RH WIND PRES REMARKS Newark/Liberty LGT RAIN 60 54 80 NE14G28 30.36S Teterboro LGT RAIN 58 48 69 NE13 30.36S Caldwell LGT RAIN 56 50 80 NE12G21 30.37F Morristown DRIZZLE 57 52 82 NE13G18 30.37R Somerville CLOUDY 59 53 80 MISG 30.32S Linden NOT AVBL Sussex RAIN 56 50 80 NE12G18 30.38S Abdover N/A 55 52 89 VRB3 30.36S Trenton LGT RAIN 58 54 86 NE16G25 30.29F Millville HVY RAIN 62 62 100 NE14G23 30.20F FOG Atlantic City RAIN 63 61 93 NE21G31 30.20F FOG Wrightstown LGT RAIN 59 57 94 NE22 30.24F FOG Toms River LGT RAIN 62 59 90 E22G32 30.28F Belmar LGT RAIN 61 57 87 NE25G33 30.31F $$ PAZ047>061-062-071-300500- EASTERN PENNSYLVANIA CITY SKY/WX TMP DP RH WIND PRES REMARKS Philadelphia LGT RAIN 61 58 90 NE17G25 30.26F Allentown CLOUDY 57 53 86 E13 30.32R Scranton LGT RAIN 55 49 80 NE12G20 30.32S $$ CTZ002-004>006-009-010-012-RIZ004-006-007-MAZ004-011-015-300500- SOUTHERN NEW ENGLAND IN CT CITY SKY/WX TMP DP RH WIND PRES REMARKS Bradley INTL CLOUDY 53 46 77 N7 30.47F Hartford CLOUDY 55 48 77 N7 30.45F Danbury CLOUDY 53 46 77 NE12G20 30.42F Wtrbury/Oxford N/A 54 45 71 E9 30.42F Bridgeport CLOUDY 58 48 69 NE17G25 30.40F Meriden CLOUDY 56 47 71 NE7 30.44F New Haven CLOUDY 56 48 74 NE13 30.41F Chester CLOUDY 55 48 76 NE10 30.41F Groton CLOUDY 59 50 72 NE13 30.41F Wilimantic CLOUDY 57 50 77 NE9 30.46F IN RI CITY SKY/WX TMP DP RH WIND PRES REMARKS Providence CLOUDY 55 49 80 NE8 30.47R Block Island CLOUDY 60 55 83 NE21G26 30.40F Westerly CLOUDY 58 49 72 NE10G22 30.42F IN MA CITY SKY/WX TMP DP RH WIND PRES REMARKS Boston CLOUDY 58 50 75 NE18 30.49F Worcester PTCLDY 50 46 86 NE8G18 30.49S Westfield PTCLDY 53 47 79 N7 30.48F Provincetown CLOUDY 58 51 78 E15G23 30.48F Nantucket CLOUDY 60 53 77 NE16G22 30.43S $$ ANZ330-335-338-340-345-350-353-355-300500- COASTAL MARINE OBSERVATIONS STATION/POSITION TIME SKY/WX TEMP WIND PRES VSBY WAVE AIR SEA DIR/SP/G HT/PER (UTC) (F) (DEG/KT/KT) (MB) (MI) (FT/S) NY HARB ENTRANCE 0350 64 69 60/ 29/ 37 1025.7 10/ 9 20S FIRE ISLAND 0350 63 67 70/ 27/ 37 1025.4 13/ 9 GREAT SOUTH BAY 0330 62 65 50/ 19/ 25 N/A 23 SSW MONTAUK P 0350 62 64 70/ 27/ 33 1027.6 11/ 8 15 E BARNEGAT LI 0330 70 N/A 13/ 9 HUDSON CANYON 0250 67 69 1023.7 13/ 8 KINGS POINT 0342 60 70 1027.8 EXECUTION ROCKS 0345 61 50/ 23/ 29 N/A CENTRAL LI SOUND 0315 60 71 70/ 23/ 27 N/A 4/ 4 EASTERN LI SOUND NOT AVBL ROBBINS REEF 0348 61 60/ 18/ 23 1027.9 $$ >>>>>>>>>>>>>>>>>>>>>>>>>>>> KEY <<<<<<<<<<<<<<<<<<<<<<<<<<< > < > SKY/WX - Sky Condition/Present Weather < > TMP - Temperature in Fahrenheit < > DP - Dew Point in Fahrenheit < > RH - Relative Humidity in Percent < > WIND - Direction (from) and Speed in MPH < > PRES - Mean Sea Level Pressure (inches of Hg) < > WCI - Wind Chill Index < > VSB - VISIBILITY IN MILES < > HX - HEAT INDEX < > TC - TEMPERATURE IN CELSIUS < > VRB - VARIABLE WIND DIRECTION < > < >>>>>>>>>>>>>>>>>>>>>>>>>>>> KEY <<<<<<<<<<<<<<<<<<<<<<<<<<<

USA.gov is the U.S. government's official web portal to all federal, state and local government web resources and services.